Погода Им. Полины Осипенко

Погода Им. Полины Осипенко : погода сейчас, прогноз погоды и архив. Всё, что Вы хотите узнать о погоде Им. Полины Осипенко!

Хотите узнать прогноз погоды Им. Полины Осипенко? Тогда Вам сюда: Погода Им. Полины Осипенко

Поиск расширенной информации на нашем сайте:

Другие новости

Новости СМИ2

Главная страница сайта

Новости сайта

02.10.2013

Напоминаем, что на нашем новом сайте вы можете получить высокодетализированные прогнозы погоды по пунктам России, СНГ и мира (включающие важные для авиации метеовеличины, такие как направление и скорость ветра, видимость, явления погоды, количество и форма облачности, нижняя и верхняя граница облачности), а также ознакомиться с разнообразными материалами по авиационной метеорологии и подборкой полезных ссылок на эту тему.

Сайт Метеоцентр.Азия посвящён разработке технологий оптимизации авиаметеорологического обслуживания, включая проектирование и перспективное создание нескольких автоматизированных авиаметеорологических систем:
- система выпуска высокодетальных прогностических карт явлений погоды для нижнего воздушного пространства по России и ближнему зарубежью;
- система верификации прогнозов TAF (выпускаемых синоптиками официальных АМСГ РФ и ближнего зарубежья) и AUTOTAF (выпускаемых сайтом Метеоцентр.Азия) - выявление ошибок, онлайн-сопоставление с фактической погодой METAR, автоматическое внесение коррективов в прогнозы при резком отклонении фактической погоды от прогноза, подсчёт оправдываемости прогнозов по элементам и в целом;
- система обработки, анализа и отображения авиаметеорологической информации для применения провайдерами метеорологической информации.


Погода Им. Полины Осипенко - сегодня

Время (UTC), дата Ветер
(°,м/с) 
Видим.   Явления Облачность Т
(°С)
Тd
(°С)
f(%) Тe
(°С)
Pmin
(гПа)
dP
(гПа)
Po
(мм)
O2
(г/м3)
Тmin Tmax R s Состояние
почвы
03 24.05.17 120 (ЮВ) 20000 м    10/3 600 м средняя, верхняя 
[Cu med, cong|Ac trans|Ci fib]
+18.2 +1.5 33 +19  1006.9  -0.4  749  283           
06 24.05.17 010 (С) 20000 м    10/4 600 м кучево-дожд., верхняя 
[Cb cap|Ci fib]
+18.8 +1.4 31 +19  1006.2  -0.6  748  282           
09 24.05.17 330 (СЗ) 20000 м  в посл. час ливневой дождь  10/6 600 м кучево-дожд., средняя, верхняя 
[Cb cap|Ac trans|Ci fib]
+13.3 +6 61 +14  1007.1  0.7  749  287    +19.7  0.7     
12 24.05.17 340 (С) 20000 м  {гроза, ливн. осадки}  5/5 600 м кучево-дожд. 
[Cb cap]
+10.7 +1.5 53 +10  1009.3  2.1  750  291           
15 24.05.17 340 (С) 20000 м    ясно 
+6.1 -0.1 64 +5  1010.8  1.4  751  296           
18 24.05.17 350 (С) 20000 м    ясно 
+4 -0.4 73 +3  1012.1  1.2  752  299           
21 24.05.17 360 (С) 20000 м    4/0 верхняя 
[Ci fib]
+5.6 +0.4 69 +5  1012.9  0.8  753  297  +3.1      влажная 
00 25.05.17 030 (СВ) 20000 м    ясно 
+13.3 +2.1 47 +15  1012.6  0.1  753  289           
03 25.05.17 130 (ЮВ) 20000 м    4/4 600 м 
[Sc]
+18.4 +2.3 34 +20  1010.8  -1.6  752  283           
06 25.05.17 160 (Ю) 20000 м    6/6 600 м 
[Sc]
+21.2 -0 24 +21  1008.5  -2.1  750  280           
09 25.05.17 180 (Ю) 20000 м    6/6 600 м 
[Sc]
+20.5 -0.8 24 +21  1007.3  -1.2  749  281    +22.2       
12 25.05.17 190 (Ю) 20000 м    ясно 
+14.6 +0.6 38 +15  1007.6  0.1  749  286           
15 25.05.17 150 (ЮВ) 20000 м    ясно 
+10.4 +3.6 63 +10  1007.6  0.1  749  290           
18 25.05.17 160 (Ю) 20000 м    ясно 
+8.7 +4.8 76 +10  1007.7  749  292           
21 25.05.17 160 (Ю) 20000 м    3/0 верхняя 
[Ci fib]
+10.9 +5.6 70 +11  1007.9  0.3  749  289  +6.9        влажная 
00 26.05.17 160 (Ю) 20000 м    10/0 верхняя 
[Ci fib]
+16.6 +6.3 51 +17  1006.8  -0.9  749  283    -2.4       
03 26.05.17 140 (ЮВ) 20000 м    8/0 средняя, верхняя 
[Ac trans|Ci fib]
+22.8 +4.5 30 +23  1005.5  -1.1  748  277           
06 26.05.17 330 (СЗ) 20000 м    9/3 600 м верхняя 
[Cu Sc|Ci fib]
+25.5 +2.7 23 +26  1003.9  -1.4  747  275           
09 26.05.17 320 (СЗ) 20000 м    10/3 600 м средняя, верхняя 
[Sc|Ac trans|Ci fib]
+24 +3.9 27 +24  1004.1  0.1  747  276    +26.3       
12 26.05.17 210 (ЮЗ) 20000 м    4/4 600 м 
[Sc]
+15.9 +9.6 66 +18  1005.5  1.2  748  283           
15 26.05.17 тихо ()   20000 м    3/3 600 м 
[Sc]
+10 +8.2 89 +10  1006.1  0.4  748  289           
18 26.05.17 080 (В) 20000 м    3/3 600 м 
[Sc]
+7.5 +6.9 96 +8  1006.8  0.6  748  292           
00 27.05.17 180 (Ю) 20000 м    4/0 верхняя 
[Ci fib]
+20.8 +6.5 39 +21  1006.2  -0.4  748  279           
03 27.05.17 170 (Ю) 20000 м    10/0 верхняя 
[Ci fib]
+25.7 +5.1 27 +26  1004.3  -1.8  747  274           
06 27.05.17 160 (Ю) 20000 м    10/0 верхняя 
[Cs]
+27.7 +3.3 21 +28  1002.3  -1.9  746  272           
Время (UTC), дата Ветер
(°,м/с) 
Видим.   Явления Облачность Т
(°С)
Тd
(°С)
f(%) Тe
(°С)
Pmin
(гПа)
dP
(гПа)
Po
(мм)
O2
(г/м3)
Тmin Tmax R s Состояние
почвы

Для получения пояснительной информации подведите курсор к названию столбца.

ПОГОДА Им. Полины Осипенко - архив

Всё, что Вы хотите узнать о погоде Им. Полины Осипенко - удобно и подробно!

Выберите нужную дату (начиная с 1 января 2015* года) и нажмите кнопку "Найти".
Будут отображены архивные сводки погоды по пункту Им. Полины Осипенко, начиная с указанной даты.


Отображать данные в формате CSV (для использования в таблицах Excel)


Внимание! Наш архив погоды предназначен исключительно для личного некоммерческого использования в познавательных целях. Если Вам необходимы официальные справки о состоянии погоды (для производственных, юридических, коммерческих и т.п. целей), обращайтесь в органы Росгидромета.

*Примечание: данная дата относится к архиву по метеостанциям СССР (Россия, СНГ, Балтия).
Архив по метеостанциям Зарубежной Европы и Азии (кроме Китая) хранится 10 дней, по другим регионам земного шара (Китай, Африка, Америка, Австралия, Океания) - 1 день.

Им. Полины Осипенко - район местоположения метеостанции


Название, широта, долгота, высота метеостанции:
Им. Полины Осипенко 52.4°ш. 136.5°д. 73 м над ур. моря [Российская Федерация]

Дополнительная информация

В oтличие oт бoльшинства пoгoдных сайтoв мы публикуем пoдрoбную метеoинфoрмацию в детальнoм прoфессиoнальнoм фoрмате.

Характеристики температуры и влажнoсти вoздуха измеряются на высoте 2 м в тени вдали oт зданий и деревьев.
Скoрoсть ветра измеряется на высoте 10 м (на урoвне рoста челoвека скoрoсть ветра ниже в 1.5-2 раза). Если метеoстанция нахoдится в гoрoде или в лесу, тo скoрoсть ветра занижена на 2-4 м/с пo сравнению с oткрытым местoм. Скoрoсть ветра над акватoриями крупных рек и oзёр, а также на вершинах хoлмoв на 2-5 м/с выше, чем в oбычных услoвиях.
Атмoсфернoе давление в разных тoчках местнoсти мoжет значительнo oтличаться oт давления на метеoстанции, в зависимoсти oт услoвий рельефа (при пoдъёме на 10 м давление пoнижается примернo на 1 мм рт.ст.).